Dades meteomassalio
Diari Summary for Maig 7, 2017 Units:  English    Metric   Both
« Previous Day
Next Day »
Diari Semanal Mensual Anual Personalitzat
  Maxima: Minima: Mijana:
Temperatura: TemperatureC °F 7.8 °F 16.3 °F
Rosada: DewpointC °F 2.9 °F 5.1 °F
Humitat: Humidity % 27 % 50 %
Velocitat del vent: WindSpeedKMH mph 0.0 mph 10.6 mph
Racha vent: WindSpeedGustKMH mph - -
Vent:- - WNW
Pressio: PressurehPa in 1017.2 in -
Pluja: 0.0 in    
Historical Graphs
 
 
Tabular Data for Maig 7, 2017
Time Temperature Dew Point Pressure Wind Wind Speed Wind Gust Humidity Rainfall Rate (Hourly) solar Conditions
TemperatureC °F DewpointC °F PressurehPa in Calm     Humidity % HourlyPrecipMM in SolarRadiationWatts/m^2 W/m2 Conditions
00:01 13.1 °F 3.2 °F 1019.9 in Calm     51 % 0.0 in 0.0 W/m2 RA
00:06 12.8 °F 2.9 °F 1019.9 in Calm     51 % 0.0 in 0.0 W/m2 CLR
00:07 12.8 °F 3.2 °F 1019.9 in Calm     52 % 0.0 in 0.0 W/m2 CLR
00:12 12.8 °F 3.2 °F 1019.9 in Calm     52 % 0.0 in 0.0 W/m2 CLR
00:17 12.6 °F 3.2 °F 1019.9 in Calm     53 % 0.0 in 0.0 W/m2 CLR
00:22 12.4 °F 3.1 °F 1019.9 in Calm     53 % 0.0 in 0.0 W/m2 CLR
00:27 12.4 °F 3.1 °F 1019.9 in Calm     53 % 0.0 in 0.0 W/m2 CLR
00:32 12.3 °F 3.0 °F 1020.2 in Calm     53 % 0.0 in 0.0 W/m2 CLR
00:37 12.3 °F 3.2 °F 1020.2 in Calm     54 % 0.0 in 0.0 W/m2 CLR
00:42 12.2 °F 3.1 °F 1020.2 in Calm     54 % 0.0 in 0.0 W/m2 CLR
00:47 12.1 °F 3.3 °F 1020.2 in Calm     55 % 0.0 in 0.0 W/m2 CLR
00:52 12.1 °F 3.3 °F 1020.2 in Calm     55 % 0.0 in 0.0 W/m2 CLR
00:57 12.1 °F 3.3 °F 1020.2 in Calm     55 % 0.0 in 0.0 W/m2 CLR
01:02 12.0 °F 3.2 °F 1020.2 in Calm     55 % 0.0 in 0.0 W/m2 CLR
01:07 11.9 °F 3.4 °F 1020.2 in Calm     56 % 0.0 in 0.0 W/m2 CLR
01:12 11.8 °F 3.3 °F 1020.2 in Calm     56 % 0.0 in 0.0 W/m2 CLR
01:17 11.6 °F 3.4 °F 1020.2 in Calm     57 % 0.0 in 0.0 W/m2 CLR
01:22 11.6 °F 3.3 °F 1020.2 in Calm     57 % 0.0 in 0.0 W/m2 CLR
01:27 11.4 °F 3.4 °F 1020.2 in Calm     58 % 0.0 in 0.0 W/m2 CLR
01:33 11.3 °F 3.3 °F 1020.2 in Calm     58 % 0.0 in 0.0 W/m2 CLR
01:38 11.2 °F 3.5 °F 1020.2 in Calm     59 % 0.0 in 0.0 W/m2 CLR
01:43 11.2 °F 3.4 °F 1020.2 in Calm     59 % 0.0 in 0.0 W/m2 CLR
01:48 11.1 °F 3.4 °F 1020.2 in Calm     59 % 0.0 in 0.0 W/m2 CLR
01:53 11.1 °F 3.4 °F 1020.2 in Calm     59 % 0.0 in 0.0 W/m2 CLR
01:58 11.0 °F 3.5 °F 1019.9 in Calm     60 % 0.0 in 0.0 W/m2 CLR
02:03 10.9 °F 3.4 °F 1020.2 in Calm     60 % 0.0 in 0.0 W/m2 CLR
02:08 10.9 °F 3.7 °F 1020.2 in Calm     61 % 0.0 in 0.0 W/m2 CLR
02:13 11.0 °F 3.8 °F 1020.2 in Calm     61 % 0.0 in 0.0 W/m2 CLR
02:18 11.1 °F 3.8 °F 1020.2 in Calm     61 % 0.0 in 0.0 W/m2 CLR
02:23 11.0 °F 3.8 °F 1020.2 in Calm     61 % 0.0 in 0.0 W/m2 CLR
02:28 10.9 °F 3.7 °F 1020.2 in Calm     61 % 0.0 in 0.0 W/m2 CLR
02:33 10.7 °F 3.4 °F 1020.2 in Calm     61 % 0.0 in 0.0 W/m2 CLR
02:38 10.6 °F 3.6 °F 1020.5 in Calm     62 % 0.0 in 0.0 W/m2 CLR
02:43 10.5 °F 3.7 °F 1020.2 in Calm     63 % 0.0 in 0.0 W/m2 CLR
02:48 10.4 °F 3.9 °F 1020.5 in Calm     64 % 0.0 in 0.0 W/m2 CLR
02:53 10.4 °F 3.9 °F 1020.2 in Calm     64 % 0.0 in 0.0 W/m2 CLR
02:58 10.3 °F 3.8 °F 1020.5 in Calm     64 % 0.0 in 0.0 W/m2 CLR
03:03 10.2 °F 3.9 °F 1020.2 in Calm     65 % 0.0 in 0.0 W/m2 CLR
03:08 10.2 °F 3.9 °F 1020.2 in Calm     65 % 0.0 in 0.0 W/m2 CLR
03:13 10.1 °F 3.8 °F 1020.2 in Calm     65 % 0.0 in 0.0 W/m2 CLR
03:18 10.2 °F 4.2 °F 1020.2 in Calm     66 % 0.0 in 0.0 W/m2 CLR
03:23 10.3 °F 4.1 °F 1020.5 in Calm     65 % 0.0 in 0.0 W/m2 CLR
03:28 10.4 °F 4.1 °F 1020.5 in Calm     65 % 0.0 in 0.0 W/m2 CLR
03:33 10.3 °F 4.1 °F 1020.5 in Calm     65 % 0.0 in 0.0 W/m2 CLR
03:38 10.2 °F 3.9 °F 1020.5 in Calm     65 % 0.0 in 0.0 W/m2 CLR
03:43 10.0 °F 3.9 °F 1020.5 in Calm     66 % 0.0 in 0.0 W/m2 CLR
03:48 9.7 °F 3.9 °F 1020.5 in Calm     67 % 0.0 in 0.0 W/m2 CLR
03:53 9.7 °F 3.9 °F 1020.5 in Calm     67 % 0.0 in 0.0 W/m2 CLR
03:58 9.7 °F 3.9 °F 1020.5 in Calm     67 % 0.0 in 0.0 W/m2 CLR
04:03 9.7 °F 3.8 °F 1020.5 in Calm     67 % 0.0 in 0.0 W/m2 CLR
04:08 9.6 °F 4.0 °F 1020.5 in Calm     68 % 0.0 in 0.0 W/m2 CLR
04:13 9.6 °F 4.0 °F 1020.5 in Calm     68 % 0.0 in 0.0 W/m2 CLR
04:18 9.7 °F 4.1 °F 1020.2 in Calm     68 % 0.0 in 0.0 W/m2 CLR
04:23 9.7 °F 3.8 °F 1020.5 in Calm     67 % 0.0 in 0.0 W/m2 CLR
04:28 9.3 °F 3.7 °F 1020.5 in Calm     68 % 0.0 in 0.0 W/m2 CLR
04:33 9.0 °F 3.8 °F 1020.5 in Calm     70 % 0.0 in 0.0 W/m2 CLR
04:38 8.9 °F 3.7 °F 1020.5 in Calm     70 % 0.0 in 0.0 W/m2 CLR
04:43 8.9 °F 3.9 °F 1020.5 in Calm     71 % 0.0 in 0.0 W/m2 CLR
04:48 8.9 °F 3.9 °F 1020.5 in Calm     71 % 0.0 in 0.0 W/m2 CLR
04:53 8.9 °F 3.9 °F 1020.5 in Calm     71 % 0.0 in 0.0 W/m2 CLR
04:58 8.9 °F 3.9 °F 1020.5 in Calm     71 % 0.0 in 0.0 W/m2 CLR
05:03 8.9 °F 3.9 °F 1020.5 in Calm     71 % 0.0 in 0.0 W/m2 CLR
05:08 8.9 °F 3.9 °F 1020.5 in Calm     71 % 0.0 in 0.0 W/m2 CLR
05:13 8.8 °F 3.8 °F 1020.5 in Calm     71 % 0.0 in 0.0 W/m2 CLR
05:18 8.8 °F 3.8 °F 1020.2 in Calm     71 % 0.0 in 0.0 W/m2 CLR
05:23 8.7 °F 3.9 °F 1020.2 in Calm     72 % 0.0 in 0.0 W/m2 CLR
05:24 8.7 °F 3.9 °F 1020.2 in Calm     72 % 0.0 in 0.0 W/m2 CLR
05:29 8.7 °F 3.9 °F 1020.5 in Calm     72 % 0.0 in 0.0 W/m2 CLR
05:34 8.7 °F 3.9 °F 1020.5 in Calm     72 % 0.0 in 0.0 W/m2 CLR
05:39 8.7 °F 3.9 °F 1020.2 in Calm     72 % 0.0 in 0.0 W/m2 CLR
05:44 8.7 °F 3.9 °F 1020.2 in Calm     72 % 0.0 in 0.0 W/m2 CLR
05:49 8.7 °F 3.9 °F 1020.5 in Calm     72 % 0.0 in 0.0 W/m2 CLR
05:54 8.6 °F 3.8 °F 1020.5 in Calm     72 % 0.0 in 0.0 W/m2 CLR
05:59 8.6 °F 3.8 °F 1020.5 in Calm     72 % 0.0 in 0.0 W/m2 CLR
06:04 8.5 °F 3.7 °F 1020.2 in Calm     72 % 0.0 in 0.0 W/m2 CLR
06:09 8.4 °F 3.7 °F 1020.2 in Calm     72 % 0.0 in 0.0 W/m2 CLR
06:14 8.3 °F 3.6 °F 1020.2 in Calm     72 % 0.0 in 0.0 W/m2 CLR
06:19 8.3 °F 3.7 °F 1020.2 in Calm     73 % 0.0 in 0.0 W/m2 CLR
06:24 8.2 °F 3.6 °F 1020.2 in Calm     73 % 0.0 in 0.0 W/m2 CLR
06:29 8.1 °F 3.5 °F 1020.2 in Calm     73 % 0.0 in 0.0 W/m2 CLR
06:34 8.0 °F 3.7 °F 1020.2 in Calm     74 % 0.0 in 0.0 W/m2 CLR
06:39 8.0 °F 3.7 °F 1020.2 in Calm     74 % 0.0 in 0.0 W/m2 CLR
06:44 7.9 °F 3.6 °F 1020.2 in Calm     74 % 0.0 in 0.0 W/m2 OVC
06:49 7.8 °F 3.7 °F 1020.2 in Calm     75 % 0.0 in 0.0 W/m2 OVC
06:54 7.8 °F 3.7 °F 1020.5 in Calm     75 % 0.0 in 5.0 W/m2 OVC
06:59 7.8 °F 3.9 °F 1020.5 in Calm     76 % 0.0 in 9.0 W/m2 BKN
07:04 7.9 °F 3.9 °F 1020.5 in Calm     76 % 0.0 in 11.0 W/m2 BKN
07:09 7.9 °F 3.7 °F 1020.5 in Calm     75 % 0.0 in 12.0 W/m2 BKN
07:14 7.9 °F 3.7 °F 1020.5 in Calm     75 % 0.0 in 14.0 W/m2 BKN
07:19 7.9 °F 3.8 °F 1020.9 in Calm     75 % 0.0 in 18.0 W/m2 BKN
07:24 8.1 °F 3.9 °F 1020.9 in Calm     75 % 0.0 in 23.0 W/m2 BKN
07:29 8.4 °F 4.0 °F 1020.9 in Calm     74 % 0.0 in 33.0 W/m2 BKN
07:34 8.7 °F 4.3 °F 1020.9 in Calm     74 % 0.0 in 39.0 W/m2 BKN
07:39 8.9 °F 4.4 °F 1020.9 in Calm     73 % 0.0 in 56.0 W/m2 SCT
07:44 9.2 °F 4.4 °F 1021.2 in Calm     72 % 0.0 in 72.0 W/m2 FEW
07:49 9.5 °F 4.7 °F 1021.2 in Calm     72 % 0.0 in 84.0 W/m2 FEW
07:54 9.9 °F 4.9 °F 1021.2 in Calm     71 % 0.0 in 102.0 W/m2 CLR
07:59 10.4 °F 5.0 °F 1021.2 in Calm     69 % 0.0 in 120.0 W/m2 CLR
08:04 10.9 °F 5.0 °F 1021.2 in Calm     67 % 0.0 in 134.0 W/m2 CLR
08:09 11.3 °F 5.2 °F 1021.2 in Calm     66 % 0.0 in 151.0 W/m2 CLR
08:14 11.8 °F 5.4 °F 1021.2 in Calm     65 % 0.0 in 174.0 W/m2 CLR
08:19 12.2 °F 5.3 °F 1021.2 in Calm     63 % 0.0 in 193.0 W/m2 CLR
08:24 12.5 °F 5.7 °F 1020.9 in Calm     63 % 0.0 in 211.0 W/m2 CLR
08:29 13.0 °F 5.7 °F 1020.9 in Calm     61 % 0.0 in 229.0 W/m2 CLR
08:34 13.5 °F 5.9 °F 1020.9 in Calm     60 % 0.0 in 248.0 W/m2 CLR
08:35 13.5 °F 5.9 °F 1020.9 in Calm     60 % 0.0 in 248.0 W/m2 CLR
08:40 14.1 °F 6.2 °F 1020.9 in Calm     59 % 0.0 in 262.0 W/m2 CLR
08:45 14.6 °F 6.7 °F 1021.2 in Calm     59 % 0.0 in 279.0 W/m2 CLR
08:50 15.4 °F 6.7 °F 1020.9 in Calm     56 % 0.0 in 294.0 W/m2 CLR
08:55 16.1 °F 7.0 °F 1020.9 in Calm     55 % 0.0 in 313.0 W/m2 CLR
09:00 16.5 °F 6.9 °F 1021.2 in SSW 1.9 mph   53 % 0.0 in 329.0 W/m2 CLR
09:05 16.9 °F 6.7 °F 1021.2 in WNW 14.5 mph 14.5 mph 51 % 0.0 in 346.0 W/m2 CLR
09:10 17.3 °F 6.8 °F 1021.2 in WNW 8.0 mph 8.0 mph 50 % 0.0 in 360.0 W/m2 CLR
09:15 17.4 °F 6.6 °F 1021.2 in WNW 12.9 mph 12.9 mph 49 % 0.0 in 380.0 W/m2 CLR
09:20 17.6 °F 6.8 °F 1020.9 in WNW 9.7 mph 9.7 mph 49 % 0.0 in 394.0 W/m2 CLR
09:25 17.7 °F 6.9 °F 1020.9 in NW 12.9 mph 13.2 mph 49 % 0.0 in 410.0 W/m2 CLR
09:30 17.8 °F 6.7 °F 1020.9 in NW 18.5 mph 18.5 mph 48 % 0.0 in 378.0 W/m2 CLR
09:35 17.9 °F 6.8 °F 1020.9 in NNW 18.5 mph 18.5 mph 48 % 0.0 in 47.0 W/m2 CLR
09:40 18.1 °F 6.9 °F 1020.9 in NW 14.8 mph 14.8 mph 48 % 0.0 in 459.0 W/m2 CLR
09:45 18.3 °F 7.1 °F 1020.9 in NW 17.7 mph 17.7 mph 48 % 0.0 in 475.0 W/m2 CLR
09:50 18.4 °F 6.9 °F 1020.9 in WNW 18.5 mph 18.5 mph 47 % 0.0 in 489.0 W/m2 CLR
09:55 18.4 °F 6.9 °F 1020.9 in NW 20.4 mph 20.4 mph 47 % 0.0 in 504.0 W/m2 CLR
10:00 18.3 °F 6.8 °F 1020.9 in NW 20.9 mph 20.9 mph 47 % 0.0 in 522.0 W/m2 CLR
10:05 18.4 °F 6.9 °F 1020.9 in NW 24.1 mph 24.1 mph 47 % 0.0 in 536.0 W/m2 CLR
10:10 18.6 °F 6.8 °F 1020.9 in NW 24.1 mph 24.1 mph 46 % 0.0 in 550.0 W/m2 CLR
10:15 18.7 °F 7.2 °F 1020.9 in NW 20.9 mph 20.9 mph 47 % 0.0 in 568.0 W/m2 CLR
10:20 18.8 °F 6.9 °F 1020.9 in NW 18.5 mph 18.5 mph 46 % 0.0 in 582.0 W/m2 CLR
10:25 19.1 °F 6.9 °F 1020.9 in NW 20.9 mph 20.9 mph 45 % 0.0 in 596.0 W/m2 CLR
10:30 19.1 °F 6.9 °F 1020.9 in NW 18.5 mph 18.5 mph 45 % 0.0 in 610.0 W/m2 CLR
10:35 19.3 °F 7.1 °F 1020.9 in NW 22.2 mph 22.2 mph 45 % 0.0 in 624.0 W/m2 CLR
10:40 19.3 °F 6.8 °F 1020.9 in NW 22.5 mph 22.5 mph 44 % 0.0 in 638.0 W/m2 CLR
10:41 19.3 °F 7.1 °F 1020.9 in NW 22.2 mph 22.2 mph 45 % 0.0 in 642.0 W/m2 CLR
10:46 19.5 °F 7.2 °F 1020.9 in NW 18.5 mph 18.5 mph 45 % 0.0 in 654.0 W/m2 CLR
10:51 19.6 °F 7.0 °F 1020.9 in NNW 24.1 mph 24.1 mph 44 % 0.0 in 668.0 W/m2 CLR
10:56 19.8 °F 7.2 °F 1020.9 in WNW 18.5 mph 18.5 mph 44 % 0.0 in 682.0 W/m2 CLR
11:01 19.8 °F 6.9 °F 1020.9 in West 24.1 mph 24.1 mph 43 % 0.0 in 691.0 W/m2 CLR
11:06 20.2 °F 7.2 °F 1020.9 in NNW 14.8 mph 14.8 mph 43 % 0.0 in 705.0 W/m2 CLR
11:11 20.4 °F 7.4 °F 1020.9 in WNW 19.3 mph 19.3 mph 43 % 0.0 in 717.0 W/m2 CLR
11:16 20.6 °F 7.2 °F 1020.9 in NNW 22.5 mph 22.5 mph 42 % 0.0 in 731.0 W/m2 CLR
11:21 20.8 °F 7.8 °F 1020.9 in WNW 18.5 mph 18.5 mph 43 % 0.0 in 738.0 W/m2 CLR
11:26 21.0 °F 7.9 °F 1020.9 in WNW 18.5 mph 18.5 mph 43 % 0.0 in 752.0 W/m2 CLR
11:31 21.1 °F 7.3 °F 1020.9 in WNW 16.7 mph 16.7 mph 41 % 0.0 in 761.0 W/m2 CLR
11:36 21.3 °F 7.1 °F 1020.9 in WNW 18.5 mph 18.5 mph 40 % 0.0 in 775.0 W/m2 CLR
11:41 21.3 °F 7.2 °F 1020.9 in NNW 22.2 mph 22.2 mph 40 % 0.0 in 788.0 W/m2 CLR
11:46 21.4 °F 7.2 °F 1020.9 in North 22.2 mph 22.2 mph 40 % 0.0 in 795.0 W/m2 CLR
11:51 21.4 °F 7.2 °F 1020.9 in North 16.7 mph 16.7 mph 40 % 0.0 in 803.0 W/m2 CLR
11:56 21.6 °F 7.1 °F 1020.9 in NNW 24.1 mph 24.1 mph 39 % 0.0 in 812.0 W/m2 CLR
12:01 21.8 °F 7.2 °F 1020.9 in NNW 20.4 mph 20.4 mph 39 % 0.0 in 823.0 W/m2 CLR
12:07 21.9 °F 7.3 °F 1020.9 in NW 29.6 mph 29.6 mph 39 % 0.0 in 835.0 W/m2 CLR
12:12 21.8 °F 7.3 °F 1020.5 in NW 14.8 mph 14.8 mph 39 % 0.0 in 844.0 W/m2 CLR
12:17 22.2 °F 7.6 °F 1020.5 in North 3.7 mph 3.7 mph 39 % 0.0 in 853.0 W/m2 CLR
12:22 22.2 °F 6.8 °F 1020.5 in North 24.1 mph 24.1 mph 37 % 0.0 in 854.0 W/m2 CLR
12:27 22.3 °F 7.3 °F 1020.5 in WNW 24.1 mph 24.1 mph 38 % 0.0 in 867.0 W/m2 CLR
12:32 22.4 °F 7.4 °F 1020.5 in WNW 3.7 mph 3.7 mph 38 % 0.0 in 886.0 W/m2 CLR
12:37 22.6 °F 7.6 °F 1020.5 in NW 14.8 mph 14.8 mph 38 % 0.0 in 884.0 W/m2 CLR
12:42 22.7 °F 7.3 °F 1020.5 in NNW 22.5 mph 22.5 mph 37 % 0.0 in 896.0 W/m2 CLR
12:47 22.5 °F 7.1 °F 1020.5 in NNW 19.3 mph 19.3 mph 37 % 0.0 in 907.0 W/m2 CLR
12:48 22.5 °F 7.4 °F 1020.5 in North 14.8 mph 14.8 mph 38 % 0.0 in 912.0 W/m2 CLR
12:53 22.4 °F 7.4 °F 1020.2 in North 20.4 mph 20.4 mph 38 % 0.0 in 925.0 W/m2 CLR
12:58 22.7 °F 7.2 °F 1020.2 in North 18.5 mph 18.5 mph 37 % 0.0 in 911.0 W/m2 CLR
13:03 22.9 °F 7.4 °F 1020.2 in WNW 20.4 mph 20.4 mph 37 % 0.0 in 918.0 W/m2 CLR
13:08 23.1 °F 7.6 °F 1020.2 in NNE 14.8 mph 14.8 mph 37 % 0.0 in 944.0 W/m2 CLR
13:13 23.2 °F 6.9 °F 1019.9 in NW 18.5 mph 18.5 mph 35 % 0.0 in 944.0 W/m2 CLR
13:18 23.5 °F 7.2 °F 1019.9 in NNW 22.5 mph 22.5 mph 35 % 0.0 in 944.0 W/m2 CLR
13:23 23.3 °F 7.0 °F 1019.9 in NNW 31.5 mph 31.5 mph 35 % 0.0 in 944.0 W/m2 CLR
13:28 23.2 °F 6.5 °F 1019.9 in North 22.2 mph 22.2 mph 34 % 0.0 in 962.0 W/m2 CLR
13:33 23.4 °F 5.7 °F 1019.9 in WNW 31.5 mph 31.5 mph 32 % 0.0 in 1023.0 W/m2 CLR
13:38 23.4 °F 5.7 °F 1019.9 in NW 13.0 mph 13.0 mph 32 % 0.0 in 1056.0 W/m2 CLR
13:43 23.7 °F 6.4 °F 1019.9 in NW 25.9 mph 25.9 mph 33 % 0.0 in 1079.0 W/m2 CLR
13:48 23.4 °F 6.2 °F 1019.5 in North 18.5 mph 18.5 mph 33 % 0.0 in 327.0 W/m2 CLR
13:53 23.3 °F 6.2 °F 1019.5 in North 31.5 mph 31.5 mph 33 % 0.0 in 977.0 W/m2 CLR
13:58 23.7 °F 5.6 °F 1019.5 in NW 22.2 mph 22.2 mph 31 % 0.0 in 958.0 W/m2 CLR
14:03 23.5 °F 6.3 °F 1019.5 in NNW 35.2 mph 35.2 mph 33 % 0.0 in 951.0 W/m2 CLR
14:08 23.7 °F 6.0 °F 1019.5 in NW 22.5 mph 22.5 mph 32 % 0.0 in 951.0 W/m2 CLR
14:13 23.9 °F 6.2 °F 1019.5 in NNW 20.4 mph 20.4 mph 32 % 0.0 in 953.0 W/m2 CLR
14:18 24.3 °F 6.5 °F 1019.5 in WNW 27.8 mph 27.8 mph 32 % 0.0 in 969.0 W/m2 CLR
14:23 23.9 °F 6.2 °F 1019.5 in NW 16.7 mph 16.7 mph 32 % 0.0 in 970.0 W/m2 CLR
14:28 24.1 °F 6.8 °F 1019.2 in NW 37.0 mph 37.0 mph 33 % 0.0 in 937.0 W/m2 CLR
14:33 24.2 °F 6.9 °F 1019.2 in WNW 24.1 mph 24.1 mph 33 % 0.0 in 939.0 W/m2 CLR
14:38 24.2 °F 6.5 °F 1019.2 in NW 14.5 mph 14.5 mph 32 % 0.0 in 930.0 W/m2 CLR
14:43 24.4 °F 6.6 °F 1019.2 in NW 22.2 mph 22.2 mph 32 % 0.0 in 921.0 W/m2 CLR
14:48 24.5 °F 6.3 °F 1019.2 in NW 27.8 mph 27.8 mph 31 % 0.0 in 914.0 W/m2 CLR
14:53 24.6 °F 5.3 °F 1018.8 in WNW 20.4 mph 20.4 mph 29 % 0.0 in 912.0 W/m2 CLR
14:58 24.4 °F 5.7 °F 1018.8 in NNW 27.8 mph 27.8 mph 30 % 0.0 in 905.0 W/m2 CLR
15:03 24.4 °F 5.2 °F 1018.8 in WNW 24.1 mph 24.1 mph 29 % 0.0 in 902.0 W/m2 CLR
15:08 24.3 °F 5.6 °F 1018.8 in North 18.5 mph 18.5 mph 30 % 0.0 in 893.0 W/m2 CLR
15:13 24.4 °F 5.2 °F 1018.8 in NNW 20.4 mph 20.4 mph 29 % 0.0 in 886.0 W/m2 CLR
15:18 24.6 °F 5.4 °F 1018.8 in North 27.8 mph 27.8 mph 29 % 0.0 in 881.0 W/m2 CLR
15:19 24.6 °F 5.4 °F 1018.8 in North 27.8 mph 27.8 mph 29 % 0.0 in 881.0 W/m2 CLR
15:24 24.3 °F 5.6 °F 1018.8 in NW 18.5 mph 18.5 mph 30 % 0.0 in 875.0 W/m2 CLR
15:25 24.3 °F 5.6 °F 1018.8 in North 18.5 mph 18.5 mph 30 % 0.0 in 872.0 W/m2 CLR
15:30 24.6 °F 5.8 °F 1018.8 in NW 25.9 mph 25.9 mph 30 % 0.0 in 865.0 W/m2 CLR
15:35 24.6 °F 5.4 °F 1018.5 in NNW 29.0 mph 29.0 mph 29 % 0.0 in 856.0 W/m2 CLR
15:40 24.8 °F 5.1 °F 1018.5 in NW 24.1 mph 24.1 mph 28 % 0.0 in 853.0 W/m2 CLR
15:45 24.8 °F 5.1 °F 1018.5 in NNW 29.6 mph 29.6 mph 28 % 0.0 in 842.0 W/m2 CLR
15:50 24.9 °F 5.6 °F 1018.5 in NW 29.6 mph 29.6 mph 29 % 0.0 in 833.0 W/m2 CLR
15:55 24.9 °F 5.6 °F 1018.5 in NW 22.5 mph 22.5 mph 29 % 0.0 in 824.0 W/m2 CLR
16:00 24.8 °F 5.1 °F 1018.5 in North 31.5 mph 31.5 mph 28 % 0.0 in 816.0 W/m2 CLR
16:05 24.7 °F 5.0 °F 1018.2 in North 18.5 mph 18.5 mph 28 % 0.0 in 807.0 W/m2 CLR
16:10 24.8 °F 4.6 °F 1018.2 in NNW 18.5 mph 18.5 mph 27 % 0.0 in 796.0 W/m2 CLR
16:15 25.0 °F 5.2 °F 1017.8 in North 22.5 mph 22.5 mph 28 % 0.0 in 788.0 W/m2 CLR
16:20 25.1 °F 4.7 °F 1017.8 in NNE 18.5 mph 18.7 mph 27 % 0.0 in 775.0 W/m2 CLR
16:25 24.9 °F 5.1 °F 1017.8 in NW 33.3 mph 33.3 mph 28 % 0.0 in 768.0 W/m2 CLR
16:30 24.9 °F 5.2 °F 1017.8 in NNW 29.6 mph 29.6 mph 28 % 0.0 in 756.0 W/m2 CLR
16:35 24.9 °F 4.7 °F 1017.8 in North 27.8 mph 27.8 mph 27 % 0.0 in 745.0 W/m2 CLR
16:37 24.8 °F 4.6 °F 1017.8 in NNW 14.8 mph 14.8 mph 27 % 0.0 in 740.0 W/m2 CLR
16:42 25.1 °F 5.3 °F 1017.8 in WNW 7.4 mph 7.4 mph 28 % 0.0 in 729.0 W/m2 CLR
16:47 25.2 °F 5.3 °F 1017.8 in NNW 20.4 mph 20.4 mph 28 % 0.0 in 714.0 W/m2 CLR
16:52 25.3 °F 5.4 °F 1017.8 in NNW 27.8 mph 27.8 mph 28 % 0.0 in 703.0 W/m2 CLR
16:57 25.2 °F 4.8 °F 1017.5 in NNW 35.2 mph 35.2 mph 27 % 0.0 in 693.0 W/m2 CLR
17:02 25.4 °F 5.1 °F 1017.5 in NW 24.1 mph 24.1 mph 27 % 0.0 in 680.0 W/m2 CLR
17:07 25.3 °F 5.0 °F 1017.5 in NNW 24.1 mph 24.1 mph 27 % 0.0 in 664.0 W/m2 CLR
17:12 25.2 °F 4.8 °F 1017.5 in North 20.4 mph 20.4 mph 27 % 0.0 in 650.0 W/m2 CLR
17:17 25.2 °F 5.3 °F 1017.5 in NNE 18.5 mph 18.5 mph 28 % 0.0 in 640.0 W/m2 CLR
17:18 25.2 °F 4.9 °F 1017.5 in NNW 25.9 mph 25.9 mph 27 % 0.0 in 638.0 W/m2 CLR
17:23 25.2 °F 4.9 °F 1017.5 in NW 29.6 mph 29.6 mph 27 % 0.0 in 622.0 W/m2 CLR
17:28 25.4 °F 5.6 °F 1017.5 in NW 18.5 mph 18.5 mph 28 % 0.0 in 610.0 W/m2 CLR
17:33 25.4 °F 5.0 °F 1017.2 in NNW 18.5 mph 18.5 mph 27 % 0.0 in 594.0 W/m2 CLR
17:38 25.6 °F 5.2 °F 1017.5 in North 25.9 mph 25.9 mph 27 % 0.0 in 580.0 W/m2 CLR
17:43 25.6 °F 5.2 °F 1017.2 in NNW 25.9 mph 25.9 mph 27 % 0.0 in 564.0 W/m2 CLR
17:45 25.6 °F 5.2 °F 1017.2 in NW 25.9 mph 25.9 mph 27 % 0.0 in 559.0 W/m2 CLR
Lo Temps de Massalio
Compliments of Weather Underground - 1 mb